This is the latest recevied weather packets stored in our database for station/object K42C. If no packets are shown the sender has not sent any weather packets the latest 10 day(s).
| Time | Temp. | Humidity | Pressure | Rain* | Wind** | Luminosity | Snow |
|---|---|---|---|---|---|---|---|
| 1777855385 | 13.33° C | 68% | 968.7 hPa | 0 mm | 2.68 m/s, 194° | - | - |
| 1777854988 | 13.33° C | 67% | 968.5 hPa | 0 mm | 1.79 m/s, 212° | - | - |
| 1777854587 | 13.89° C | 65% | 968.4 hPa | 0 mm | 3.13 m/s, 150° | - | - |
| 1777854190 | 13.89° C | 64% | 968.4 hPa | 0 mm | 2.68 m/s, 191° | - | - |
| 1777853789 | 13.89° C | 64% | 968.4 hPa | 0 mm | 2.68 m/s, 233° | - | - |
| 1777853392 | 13.89° C | 64% | 968.4 hPa | 0 mm | 4.02 m/s, 153° | - | - |
| 1777852991 | 13.89° C | 64% | 968.3 hPa | 0 mm | 3.58 m/s, 176° | - | - |
| 1777852593 | 13.89° C | 64% | 968.3 hPa | 0 mm | 3.58 m/s, 160° | - | - |
| 1777852193 | 13.89° C | 63% | 968.2 hPa | 0 mm | 2.68 m/s, 181° | - | - |
| 1777851795 | 14.44° C | 63% | 968.2 hPa | 0 mm | 4.02 m/s, 181° | - | - |
| 1777851394 | 14.44° C | 63% | 968.2 hPa | 0 mm | 0.89 m/s, 222° | - | - |
| 1777850997 | 14.44° C | 62% | 968.2 hPa | 0 mm | 4.02 m/s, 179° | - | - |
| 1777850596 | 14.44° C | 62% | 968.3 hPa | 0 mm | 3.13 m/s, 174° | - | - |
| 1777850199 | 14.44° C | 61% | 968.1 hPa | 0 mm | 4.02 m/s, 170° | - | - |
| 1777849798 | 14.44° C | 62% | 968.5 hPa | 0 mm | 4.02 m/s, 229° | - | - |
| 1777849401 | 13.89° C | 62% | 968.6 hPa | 0 mm | 4.02 m/s, 129° | - | - |
| 1777849000 | 13.89° C | 62% | 968.6 hPa | 0 mm | 3.13 m/s, 179° | - | - |
| 1777848603 | 13.89° C | 62% | 968.7 hPa | 0 mm | 3.13 m/s, 194° | - | - |
| 1777848202 | 13.89° C | 63% | 968.9 hPa | 0 mm | 4.47 m/s, 186° | - | - |
| 1777847804 | 13.89° C | 63% | 969.3 hPa | 0 mm | 5.36 m/s, 212° | - | - |
| 1777847404 | 13.89° C | 63% | 969.1 hPa | 0 mm | 3.58 m/s, 248° | - | - |
| 1777847006 | 13.33° C | 63% | 969.4 hPa | 0 mm | 5.81 m/s, 235° | - | - |
| 1777846606 | 13.33° C | 64% | 969.3 hPa | 0 mm | 3.58 m/s, 166° | - | - |
| 1777846208 | 13.33° C | 64% | 969.4 hPa | 0 mm | 5.81 m/s, 191° | - | - |
| 1777845807 | 13.33° C | 64% | 969.6 hPa | 0 mm | 5.36 m/s, 166° | - | - |
* Rain latest hour (hover to see other rain measurements)
** Current wind speed in m/s (hover to see current wind gust speed)